Time,TemperatureF,DewpointF,PressureIn,WindDirection,WindDirectionDegrees,WindSpeedMPH,WindSpeedGustMPH,Humidity,HourlyPrecipIn,Conditions,Clouds,dailyrainin,SoftwareType,DateUTC
2013-04-21 00:00:00,34.5,10.2,30.23,NNW,348,4.0,7.0,36,0.00,,,0.00,meteohub,2013-04-21 04:00:00,
2013-04-21 00:01:00,34.5,10.9,30.23,North,-999,-999.0,7.0,37,0.00,,,0.00,meteohub,2013-04-21 04:01:00,
2013-04-21 00:02:00,34.5,10.9,30.23,WSW,248,3.0,7.0,37,0.00,,,0.00,meteohub,2013-04-21 04:02:00,
2013-04-21 00:07:00,34.5,10.9,30.26,SW,233,2.0,7.0,37,0.00,,,0.00,meteohub,2013-04-21 04:07:00,
2013-04-21 00:12:00,34.5,10.9,30.26,WNW,288,3.0,8.0,37,0.00,,,0.00,meteohub,2013-04-21 04:12:00,
2013-04-21 00:17:00,34.5,10.9,30.26,NW,305,3.0,8.0,37,0.00,,,0.00,meteohub,2013-04-21 04:17:00,
2013-04-21 00:22:00,34.3,10.8,30.26,NW,323,0.0,3.0,37,0.00,,,0.00,meteohub,2013-04-21 04:22:00,
2013-04-21 00:27:00,34.2,10.6,30.26,NNE,31,4.0,4.0,37,0.00,,,0.00,meteohub,2013-04-21 04:27:00,
2013-04-21 00:32:00,34.2,10.6,30.26,North,-999,-999.0,4.0,37,0.00,,,0.00,meteohub,2013-04-21 04:32:00,
2013-04-21 00:37:00,34.0,10.4,30.26,ESE,108,3.0,4.0,37,0.00,,,0.00,meteohub,2013-04-21 04:37:00,
2013-04-21 00:42:00,33.8,9.7,30.26,NNW,335,4.0,4.0,36,0.00,,,0.00,meteohub,2013-04-21 04:42:00,
2013-04-21 00:47:00,33.6,10.0,30.26,WSW,243,5.0,5.0,37,0.00,,,0.00,meteohub,2013-04-21 04:47:00,
2013-04-21 00:52:00,33.4,10.0,30.29,North,-999,-999.0,8.0,37,0.00,,,0.00,meteohub,2013-04-21 04:52:00,
2013-04-21 00:57:00,33.3,9.9,30.29,West,271,3.0,8.0,37,0.00,,,0.00,meteohub,2013-04-21 04:57:00,
2013-04-21 01:02:00,33.3,9.1,30.29,NNW,343,0.0,6.0,36,0.00,,,0.00,meteohub,2013-04-21 05:02:00,
2013-04-21 01:07:00,33.1,9.0,30.29,NW,319,5.0,6.0,36,0.00,,,0.00,meteohub,2013-04-21 05:07:00,
2013-04-21 01:12:00,32.9,9.5,30.29,North,-999,-999.0,6.0,37,0.00,,,0.00,meteohub,2013-04-21 05:12:00,
2013-04-21 01:17:00,32.7,9.3,30.29,North,-999,-999.0,5.0,37,0.00,,,0.00,meteohub,2013-04-21 05:17:00,
2013-04-21 01:22:00,32.7,9.3,30.29,North,10,3.0,3.0,37,0.00,,,0.00,meteohub,2013-04-21 05:22:00,
2013-04-21 01:27:00,32.7,9.3,30.29,North,-999,-999.0,3.0,37,0.00,,,0.00,meteohub,2013-04-21 05:27:00,
2013-04-21 01:32:00,32.7,9.3,30.29,North,-999,-999.0,3.0,37,0.00,,,0.00,meteohub,2013-04-21 05:32:00,
2013-04-21 01:37:00,32.7,9.3,30.29,North,-999,-999.0,0.0,37,0.00,,,0.00,meteohub,2013-04-21 05:37:00,
2013-04-21 01:42:00,32.7,9.9,30.29,North,-999,-999.0,0.0,38,0.00,,,0.00,meteohub,2013-04-21 05:42:00,
2013-04-21 01:47:00,32.7,9.9,30.29,North,-999,-999.0,0.0,38,0.00,,,0.00,meteohub,2013-04-21 05:47:00,
2013-04-21 01:52:00,32.7,9.9,30.29,North,-999,-999.0,-999.0,38,0.00,,,0.00,meteohub,2013-04-21 05:52:00,
2013-04-21 01:57:00,32.7,10.4,30.29,North,-999,-999.0,-999.0,39,0.00,,,0.00,meteohub,2013-04-21 05:57:00,
2013-04-21 02:02:00,32.5,10.4,30.29,North,-999,-999.0,-999.0,39,0.00,,,0.00,meteohub,2013-04-21 06:02:00,
2013-04-21 02:07:00,32.5,10.4,30.29,North,-999,-999.0,-999.0,39,0.00,,,0.00,meteohub,2013-04-21 06:07:00,
2013-04-21 02:12:00,32.4,10.8,30.29,North,-999,-999.0,-999.0,40,0.00,,,0.00,meteohub,2013-04-21 06:12:00,
2013-04-21 02:17:00,32.4,10.8,30.29,North,-999,-999.0,-999.0,40,0.00,,,0.00,meteohub,2013-04-21 06:17:00,
2013-04-21 02:22:00,32.2,10.6,30.29,North,-999,-999.0,-999.0,40,0.00,,,0.00,meteohub,2013-04-21 06:22:00,
2013-04-21 02:27:00,32.2,10.6,30.29,WNW,294,4.0,-999.0,40,0.00,,,0.00,meteohub,2013-04-21 06:27:00,
2013-04-21 02:32:00,32.2,10.6,30.29,North,-999,-999.0,4.0,40,0.00,,,0.00,meteohub,2013-04-21 06:32:00,
2013-04-21 02:37:00,32.0,10.4,30.29,North,-999,-999.0,4.0,40,0.00,,,0.00,meteohub,2013-04-21 06:37:00,
2013-04-21 02:42:00,32.2,10.6,30.29,WNW,298,4.0,-999.0,40,0.00,,,0.00,meteohub,2013-04-21 06:42:00,
2013-04-21 02:47:00,32.2,10.6,30.29,WNW,292,2.0,-999.0,40,0.00,,,0.00,meteohub,2013-04-21 06:47:00,
2013-04-21 02:52:00,32.2,10.6,30.32,WNW,283,3.0,4.0,40,0.00,,,0.00,meteohub,2013-04-21 06:52:00,
2013-04-21 02:57:00,32.2,10.6,30.32,North,-999,-999.0,4.0,40,0.00,,,0.00,meteohub,2013-04-21 06:57:00,
2013-04-21 03:02:00,32.2,10.6,30.32,North,-999,-999.0,3.0,40,0.00,,,0.00,meteohub,2013-04-21 07:02:00,
2013-04-21 03:07:00,32.0,10.9,30.32,North,-999,-999.0,3.0,41,0.00,,,0.00,meteohub,2013-04-21 07:07:00,
2013-04-21 03:12:00,32.0,10.9,30.32,North,-999,-999.0,-999.0,41,0.00,,,0.00,meteohub,2013-04-21 07:12:00,
2013-04-21 03:17:00,32.0,10.9,30.32,North,-999,-999.0,-999.0,41,0.00,,,0.00,meteohub,2013-04-21 07:17:00,
2013-04-21 03:22:00,32.0,10.9,30.32,North,-999,-999.0,-999.0,41,0.00,,,0.00,meteohub,2013-04-21 07:22:00,
2013-04-21 03:27:00,32.0,10.9,30.32,North,0,8.0,-999.0,41,0.00,,,0.00,meteohub,2013-04-21 07:27:00,
2013-04-21 03:33:00,32.2,11.1,30.32,NW,314,11.0,11.0,41,0.00,,,0.00,meteohub,2013-04-21 07:33:00,
2013-04-21 03:38:00,32.2,11.1,30.35,North,-999,-999.0,11.0,41,0.00,,,0.00,meteohub,2013-04-21 07:38:00,
2013-04-21 03:43:00,32.2,11.1,30.35,WNW,294,6.0,11.0,41,0.00,,,0.00,meteohub,2013-04-21 07:43:00,
2013-04-21 03:48:00,32.0,10.9,30.35,North,-999,-999.0,11.0,41,0.00,,,0.00,meteohub,2013-04-21 07:48:00,
2013-04-21 03:53:00,32.0,10.9,30.35,North,-999,-999.0,8.0,41,0.00,,,0.00,meteohub,2013-04-21 07:53:00,
2013-04-21 03:58:00,32.0,10.9,30.35,North,-999,-999.0,6.0,41,0.00,,,0.00,meteohub,2013-04-21 07:58:00,
2013-04-21 04:03:00,32.0,10.9,30.35,West,278,7.0,-999.0,41,0.00,,,0.00,meteohub,2013-04-21 08:03:00,
2013-04-21 04:08:00,32.0,10.9,30.35,NNW,328,5.0,-999.0,41,0.00,,,0.00,meteohub,2013-04-21 08:08:00,
2013-04-21 04:13:00,32.0,10.9,30.35,NW,314,4.0,7.0,41,0.00,,,0.00,meteohub,2013-04-21 08:13:00,
2013-04-21 04:18:00,32.0,10.9,30.35,WNW,283,0.0,7.0,41,0.00,,,0.00,meteohub,2013-04-21 08:18:00,
2013-04-21 04:23:00,32.0,10.9,30.35,NW,314,8.0,8.0,41,0.00,,,0.00,meteohub,2013-04-21 08:23:00,
2013-04-21 04:28:00,31.8,10.8,30.35,North,-999,-999.0,4.0,41,0.00,,,0.00,meteohub,2013-04-21 08:28:00,
2013-04-21 04:33:00,31.8,10.8,30.35,NW,317,5.0,8.0,41,0.00,,,0.00,meteohub,2013-04-21 08:33:00,
2013-04-21 04:38:00,31.6,10.6,30.38,North,-999,-999.0,8.0,41,0.00,,,0.00,meteohub,2013-04-21 08:38:00,
2013-04-21 04:43:00,31.6,10.6,30.38,North,-999,-999.0,5.0,41,0.00,,,0.00,meteohub,2013-04-21 08:43:00,
2013-04-21 04:48:00,31.6,10.6,30.38,North,-999,-999.0,5.0,41,0.00,,,0.00,meteohub,2013-04-21 08:48:00,
2013-04-21 04:53:00,31.5,10.4,30.38,North,-999,-999.0,-999.0,41,0.00,,,0.00,meteohub,2013-04-21 08:53:00,
2013-04-21 04:58:00,31.3,10.2,30.38,West,264,4.0,-999.0,41,0.00,,,0.00,meteohub,2013-04-21 08:58:00,
2013-04-21 05:03:00,31.1,9.7,30.38,South,184,4.0,6.0,40,0.00,,,0.00,meteohub,2013-04-21 09:03:00,
2013-04-21 05:08:00,30.9,9.5,30.38,North,-999,-999.0,6.0,40,0.00,,,0.00,meteohub,2013-04-21 09:08:00,
2013-04-21 05:13:00,30.9,9.5,30.38,North,-999,-999.0,6.0,40,0.00,,,0.00,meteohub,2013-04-21 09:13:00,
2013-04-21 05:18:00,30.9,10.0,30.38,North,-999,-999.0,-999.0,41,0.00,,,0.00,meteohub,2013-04-21 09:18:00,
2013-04-21 05:23:00,30.9,9.5,30.38,WNW,302,3.0,-999.0,40,0.00,,,0.00,meteohub,2013-04-21 09:23:00,
2013-04-21 05:28:00,30.9,9.5,30.38,North,-999,-999.0,3.0,40,0.00,,,0.00,meteohub,2013-04-21 09:28:00,
2013-04-21 05:33:00,30.9,9.5,30.38,North,-999,-999.0,3.0,40,0.00,,,0.00,meteohub,2013-04-21 09:33:00,
2013-04-21 05:38:00,31.1,9.7,30.41,WSW,237,3.0,3.0,40,0.00,,,0.00,meteohub,2013-04-21 09:38:00,
2013-04-21 05:43:00,31.1,9.7,30.41,North,-999,-999.0,3.0,40,0.00,,,0.00,meteohub,2013-04-21 09:43:00,
2013-04-21 05:48:00,31.1,10.2,30.41,North,-999,-999.0,3.0,41,0.00,,,0.00,meteohub,2013-04-21 09:48:00,
2013-04-21 05:53:00,31.1,10.2,30.41,SSW,204,5.0,5.0,41,0.00,,,0.00,meteohub,2013-04-21 09:53:00,
2013-04-21 05:58:00,31.1,9.7,30.41,WSW,255,6.0,8.0,40,0.00,,,0.00,meteohub,2013-04-21 09:58:00,
2013-04-21 06:03:00,30.9,9.5,30.41,SSW,201,4.0,8.0,40,0.00,,,0.00,meteohub,2013-04-21 10:03:00,
2013-04-21 06:08:00,30.9,9.5,30.41,North,-999,-999.0,11.0,40,0.00,,,0.00,meteohub,2013-04-21 10:08:00,
2013-04-21 06:13:00,30.9,9.5,30.41,WNW,285,4.0,11.0,40,0.00,,,0.00,meteohub,2013-04-21 10:13:00,
2013-04-21 06:18:00,30.9,9.5,30.41,North,-999,-999.0,4.0,40,0.00,,,0.00,meteohub,2013-04-21 10:18:00,
2013-04-21 06:23:00,30.9,9.5,30.44,North,-999,-999.0,4.0,40,0.00,,,0.00,meteohub,2013-04-21 10:23:00,
2013-04-21 06:28:00,31.1,10.2,30.44,SW,224,12.0,12.0,41,0.00,,,0.00,meteohub,2013-04-21 10:28:00,
2013-04-21 06:33:00,31.1,10.2,30.44,NW,305,6.0,6.0,41,0.00,,,0.00,meteohub,2013-04-21 10:33:00,
2013-04-21 06:38:00,32.2,11.1,30.44,West,275,4.0,12.0,41,0.00,,,0.00,meteohub,2013-04-21 10:38:00,
2013-04-21 06:43:00,33.1,12.0,30.44,North,-999,-999.0,12.0,41,0.00,,,0.00,meteohub,2013-04-21 10:43:00,
2013-04-21 06:48:00,34.2,12.4,30.44,North,-999,-999.0,10.0,40,0.00,,,0.00,meteohub,2013-04-21 10:48:00,
2013-04-21 06:53:00,34.0,12.2,30.44,NW,314,12.0,12.0,40,0.00,,,0.00,meteohub,2013-04-21 10:53:00,
2013-04-21 06:58:00,32.5,11.5,30.44,NW,311,13.0,14.0,41,0.00,,,0.00,meteohub,2013-04-21 10:58:00,
2013-04-21 07:03:00,32.4,11.3,30.44,NW,318,13.0,14.0,41,0.00,,,0.00,meteohub,2013-04-21 11:03:00,
2013-04-21 07:08:00,31.8,10.8,30.47,NW,321,11.0,17.0,41,0.00,,,0.00,meteohub,2013-04-21 11:08:00,
2013-04-21 07:13:00,31.5,10.4,30.47,WNW,293,8.0,17.0,41,0.00,,,0.00,meteohub,2013-04-21 11:13:00,
2013-04-21 07:18:00,31.3,10.2,30.47,NW,310,8.0,17.0,41,0.00,,,0.00,meteohub,2013-04-21 11:18:00,
2013-04-21 07:23:00,31.6,10.6,30.47,NW,311,8.0,17.0,41,0.00,,,0.00,meteohub,2013-04-21 11:23:00,
2013-04-21 07:28:00,33.4,12.2,30.47,NW,308,9.0,12.0,41,0.00,,,0.00,meteohub,2013-04-21 11:28:00,
2013-04-21 07:33:00,34.3,12.6,30.47,NNW,331,13.0,13.0,40,0.00,,,0.00,meteohub,2013-04-21 11:33:00,
2013-04-21 07:38:00,35.1,13.1,30.50,NNW,327,11.0,16.0,40,0.00,,,0.00,meteohub,2013-04-21 11:38:00,
2013-04-21 07:43:00,34.7,11.7,30.50,NW,319,8.0,16.0,38,0.00,,,0.00,meteohub,2013-04-21 11:43:00,
2013-04-21 07:48:00,35.4,11.7,30.50,NNW,338,16.0,16.0,37,0.00,,,0.00,meteohub,2013-04-21 11:48:00,
2013-04-21 07:53:00,35.4,10.4,30.50,NW,319,8.0,16.0,35,0.00,,,0.00,meteohub,2013-04-21 11:53:00,
2013-04-21 07:58:00,36.0,10.2,30.50,WNW,294,15.0,17.0,34,0.00,,,0.00,meteohub,2013-04-21 11:58:00,
2013-04-21 08:03:00,36.3,10.6,30.50,NW,321,15.0,17.0,34,0.00,,,0.00,meteohub,2013-04-21 12:03:00,
2013-04-21 08:08:00,36.5,10.8,30.50,NW,326,13.0,21.0,34,0.00,,,0.00,meteohub,2013-04-21 12:08:00,
2013-04-21 08:13:00,37.6,11.1,30.50,West,274,5.0,21.0,33,0.00,,,0.00,meteohub,2013-04-21 12:13:00,
2013-04-21 08:18:00,37.0,10.6,30.50,NNW,345,15.0,21.0,33,0.00,,,0.00,meteohub,2013-04-21 12:18:00,
2013-04-21 08:23:00,37.6,10.4,30.50,NNW,332,9.0,21.0,32,0.00,,,0.00,meteohub,2013-04-21 12:23:00,
2013-04-21 08:28:00,38.1,10.9,30.50,WNW,292,12.0,16.0,32,0.00,,,0.00,meteohub,2013-04-21 12:28:00,
2013-04-21 08:33:00,37.9,10.0,30.50,NNW,340,17.0,17.0,31,0.00,,,0.00,meteohub,2013-04-21 12:33:00,
2013-04-21 08:38:00,39.4,12.0,30.50,NNW,341,14.0,19.0,32,0.00,,,0.00,meteohub,2013-04-21 12:38:00,
2013-04-21 08:43:00,39.4,11.3,30.50,NW,312,11.0,19.0,31,0.00,,,0.00,meteohub,2013-04-21 12:43:00,
2013-04-21 08:48:00,39.7,11.5,30.50,West,262,8.0,17.0,31,0.00,,,0.00,meteohub,2013-04-21 12:48:00,
2013-04-21 08:53:00,38.8,10.8,30.53,NNW,335,15.0,17.0,31,0.00,,,0.00,meteohub,2013-04-21 12:53:00,
2013-04-21 08:58:00,39.4,11.3,30.53,NNW,327,9.0,20.0,31,0.00,,,0.00,meteohub,2013-04-21 12:58:00,
2013-04-21 09:03:00,40.1,11.8,30.53,NW,313,11.0,20.0,31,0.00,,,0.00,meteohub,2013-04-21 13:03:00,
2013-04-21 09:08:00,40.5,12.2,30.53,NW,312,8.0,17.0,31,0.00,,,0.00,meteohub,2013-04-21 13:08:00,
2013-04-21 09:13:00,39.9,10.9,30.53,NNW,342,13.0,17.0,30,0.00,,,0.00,meteohub,2013-04-21 13:13:00,
2013-04-21 09:18:00,40.6,11.7,30.53,NW,315,12.0,16.0,30,0.00,,,0.00,meteohub,2013-04-21 13:18:00,
2013-04-21 09:23:00,39.7,10.8,30.53,NW,326,8.0,16.0,30,0.00,,,0.00,meteohub,2013-04-21 13:23:00,
2013-04-21 09:28:00,39.9,10.9,30.53,North,-999,-999.0,13.0,30,0.00,,,0.00,meteohub,2013-04-21 13:28:00,
2013-04-21 09:33:00,41.7,12.6,30.53,WNW,289,10.0,13.0,30,0.00,,,0.00,meteohub,2013-04-21 13:33:00,
2013-04-21 09:38:00,42.3,13.1,30.53,NW,319,6.0,11.0,30,0.00,,,0.00,meteohub,2013-04-21 13:38:00,
2013-04-21 09:43:00,39.9,10.9,30.53,NNE,16,9.0,11.0,30,0.00,,,0.00,meteohub,2013-04-21 13:43:00,
2013-04-21 09:48:00,40.3,11.3,30.53,WNW,303,11.0,11.0,30,0.00,,,0.00,meteohub,2013-04-21 13:48:00,
2013-04-21 09:53:00,40.6,11.7,30.53,NW,324,11.0,11.0,30,0.00,,,0.00,meteohub,2013-04-21 13:53:00,
2013-04-21 09:58:00,41.0,11.1,30.53,NNW,332,9.0,17.0,29,0.00,,,0.00,meteohub,2013-04-21 13:58:00,
2013-04-21 10:03:00,39.6,10.8,30.53,NNW,340,9.0,17.0,30,0.00,,,0.00,meteohub,2013-04-21 14:03:00,
2013-04-21 10:08:00,40.3,11.3,30.56,NW,311,12.0,17.0,30,0.00,,,0.00,meteohub,2013-04-21 14:08:00,
2013-04-21 10:13:00,40.3,11.3,30.56,NNW,342,8.0,15.0,30,0.00,,,0.00,meteohub,2013-04-21 14:13:00,
2013-04-21 10:18:00,41.0,11.1,30.56,West,262,8.0,15.0,29,0.00,,,0.00,meteohub,2013-04-21 14:18:00,
2013-04-21 10:23:00,41.9,12.7,30.56,North,-999,-999.0,13.0,30,0.00,,,0.00,meteohub,2013-04-21 14:23:00,
2013-04-21 10:28:00,42.8,12.7,30.56,WSW,243,4.0,13.0,29,0.00,,,0.00,meteohub,2013-04-21 14:28:00,
2013-04-21 10:33:00,41.4,11.5,30.56,WNW,292,10.0,13.0,29,0.00,,,0.00,meteohub,2013-04-21 14:33:00,
2013-04-21 10:38:00,42.1,12.0,30.56,NNW,331,13.0,13.0,29,0.00,,,0.00,meteohub,2013-04-21 14:38:00,
2013-04-21 10:43:00,41.9,12.0,30.56,WNW,303,8.0,15.0,29,0.00,,,0.00,meteohub,2013-04-21 14:43:00,
2013-04-21 10:48:00,41.4,12.2,30.56,NNW,333,10.0,15.0,30,0.00,,,0.00,meteohub,2013-04-21 14:48:00,
2013-04-21 10:53:00,41.7,11.8,30.56,WNW,300,4.0,17.0,29,0.00,,,0.00,meteohub,2013-04-21 14:53:00,
2013-04-21 10:58:00,42.1,12.0,30.56,North,-999,-999.0,17.0,29,0.00,,,0.00,meteohub,2013-04-21 14:58:00,
2013-04-21 11:03:00,42.6,12.6,30.56,NW,304,8.0,17.0,29,0.00,,,0.00,meteohub,2013-04-21 15:03:00,
2013-04-21 11:08:00,41.2,11.3,30.56,NNW,338,12.0,17.0,29,0.00,,,0.00,meteohub,2013-04-21 15:08:00,
2013-04-21 11:13:00,42.8,12.7,30.56,North,-999,-999.0,15.0,29,0.00,,,0.00,meteohub,2013-04-21 15:13:00,
2013-04-21 11:18:00,41.7,11.8,30.56,WNW,290,8.0,12.0,29,0.00,,,0.00,meteohub,2013-04-21 15:18:00,
2013-04-21 11:23:00,41.0,11.1,30.56,West,268,6.0,12.0,29,0.00,,,0.00,meteohub,2013-04-21 15:23:00,
2013-04-21 11:28:00,41.7,11.8,30.56,West,280,6.0,12.0,29,0.00,,,0.00,meteohub,2013-04-21 15:28:00,
2013-04-21 11:33:00,42.3,12.2,30.56,NNW,335,16.0,16.0,29,0.00,,,0.00,meteohub,2013-04-21 15:33:00,
2013-04-21 11:38:00,42.6,12.6,30.56,North,350,13.0,16.0,29,0.00,,,0.00,meteohub,2013-04-21 15:38:00,
2013-04-21 11:43:00,41.5,11.7,30.56,NW,309,10.0,16.0,29,0.00,,,0.00,meteohub,2013-04-21 15:43:00,
2013-04-21 11:48:00,40.8,10.9,30.56,NW,324,15.0,16.0,29,0.00,,,0.00,meteohub,2013-04-21 15:48:00,
2013-04-21 11:53:00,40.8,10.9,30.56,NNW,345,6.0,15.0,29,0.00,,,0.00,meteohub,2013-04-21 15:53:00,
2013-04-21 11:58:00,41.5,11.7,30.56,NNW,328,8.0,15.0,29,0.00,,,0.00,meteohub,2013-04-21 15:58:00,
2013-04-21 12:03:00,41.2,11.3,30.56,North,0,9.0,15.0,29,0.00,,,0.00,meteohub,2013-04-21 16:03:00,
2013-04-21 12:08:00,40.3,10.6,30.56,North,357,8.0,15.0,29,0.00,,,0.00,meteohub,2013-04-21 16:08:00,
2013-04-21 12:13:00,41.2,11.3,30.56,North,-999,-999.0,13.0,29,0.00,,,0.00,meteohub,2013-04-21 16:13:00,
2013-04-21 12:18:00,41.9,12.0,30.56,WNW,291,11.0,16.0,29,0.00,,,0.00,meteohub,2013-04-21 16:18:00,
2013-04-21 12:23:00,42.8,12.7,30.56,NW,320,8.0,16.0,29,0.00,,,0.00,meteohub,2013-04-21 16:23:00,
2013-04-21 12:28:00,40.6,10.0,30.56,North,349,8.0,16.0,28,0.00,,,0.00,meteohub,2013-04-21 16:28:00,
2013-04-21 12:33:00,41.7,10.9,30.56,North,-999,-999.0,13.0,28,0.00,,,0.00,meteohub,2013-04-21 16:33:00,
2013-04-21 12:38:00,43.0,12.0,30.56,NNW,331,11.0,13.0,28,0.00,,,0.00,meteohub,2013-04-21 16:38:00,
2013-04-21 12:43:00,42.8,12.0,-100.00,NNW,339,6.0,13.0,28,0.00,,,0.00,meteohub,2013-04-21 16:43:00,
2013-04-21 12:48:00,42.8,12.0,-100.00,North,-999,-999.0,11.0,28,0.00,,,0.00,meteohub,2013-04-21 16:48:00,
2013-04-21 12:53:00,42.8,12.0,30.56,NW,306,8.0,11.0,28,0.00,,,0.00,meteohub,2013-04-21 16:53:00,
2013-04-21 12:58:00,43.5,12.6,30.56,North,-999,-999.0,13.0,28,0.00,,,0.00,meteohub,2013-04-21 16:58:00,
2013-04-21 13:03:00,44.8,13.6,30.56,North,-999,-999.0,13.0,28,0.00,,,0.00,meteohub,2013-04-21 17:03:00,
2013-04-21 13:08:00,43.5,12.6,30.56,North,6,10.0,13.0,28,0.00,,,0.00,meteohub,2013-04-21 17:08:00,
2013-04-21 13:13:00,44.1,13.1,30.56,North,-999,-999.0,10.0,28,0.00,,,0.00,meteohub,2013-04-21 17:13:00,
2013-04-21 13:18:00,44.6,13.5,30.56,NNW,328,8.0,10.0,28,0.00,,,0.00,meteohub,2013-04-21 17:18:00,
2013-04-21 13:23:00,44.1,13.1,30.56,NNW,342,9.0,13.0,28,0.00,,,0.00,meteohub,2013-04-21 17:23:00,
2013-04-21 13:28:00,43.7,12.7,30.56,North,-999,-999.0,13.0,28,0.00,,,0.00,meteohub,2013-04-21 17:28:00,
2013-04-21 13:33:00,44.1,13.1,30.56,North,0,9.0,13.0,28,0.00,,,0.00,meteohub,2013-04-21 17:33:00,
2013-04-21 13:38:00,45.9,14.5,30.56,North,-999,-999.0,9.0,28,0.00,,,0.00,meteohub,2013-04-21 17:38:00,
2013-04-21 13:43:00,46.4,14.2,30.56,North,-999,-999.0,9.0,27,0.00,,,0.00,meteohub,2013-04-21 17:43:00,
2013-04-21 13:48:00,47.3,15.1,30.56,West,281,4.0,11.0,27,0.00,,,0.00,meteohub,2013-04-21 17:48:00,
2013-04-21 13:53:00,46.6,14.4,30.56,NW,317,4.0,11.0,27,0.00,,,0.00,meteohub,2013-04-21 17:53:00,
2013-04-21 13:58:00,46.9,14.7,30.56,NW,319,8.0,11.0,27,0.00,,,0.00,meteohub,2013-04-21 17:58:00,
2013-04-21 14:03:00,47.1,12.2,30.56,West,274,5.0,11.0,24,0.00,,,0.00,meteohub,2013-04-21 18:03:00,
2013-04-21 14:08:00,47.1,12.2,30.56,NW,314,13.0,13.0,24,0.00,,,0.00,meteohub,2013-04-21 18:08:00,
2013-04-21 14:13:00,46.9,12.0,30.56,NW,307,13.0,13.0,24,0.00,,,0.00,meteohub,2013-04-21 18:13:00,
2013-04-21 14:18:00,46.9,12.0,30.56,South,183,6.0,17.0,24,0.00,,,0.00,meteohub,2013-04-21 18:18:00,
2013-04-21 14:23:00,47.7,15.3,30.56,WNW,299,9.0,17.0,27,0.00,,,0.00,meteohub,2013-04-21 18:23:00,
2013-04-21 14:28:00,46.2,12.4,30.56,NNW,335,8.0,17.0,25,0.00,,,0.00,meteohub,2013-04-21 18:28:00,
2013-04-21 14:33:00,46.9,12.0,30.56,West,277,11.0,13.0,24,0.00,,,0.00,meteohub,2013-04-21 18:33:00,
2013-04-21 14:38:00,45.9,9.1,30.56,NNW,341,8.0,13.0,22,0.00,,,0.00,meteohub,2013-04-21 18:38:00,
2013-04-21 14:43:00,46.2,9.5,30.56,NW,319,11.0,13.0,22,0.00,,,0.00,meteohub,2013-04-21 18:43:00,
2013-04-21 14:48:00,46.2,12.4,30.56,NW,317,9.0,12.0,25,0.00,,,0.00,meteohub,2013-04-21 18:48:00,
2013-04-21 14:53:00,46.0,12.2,30.56,NW,324,6.0,13.0,25,0.00,,,0.00,meteohub,2013-04-21 18:53:00,
2013-04-21 14:58:00,46.2,12.4,30.56,North,-999,-999.0,13.0,25,0.00,,,0.00,meteohub,2013-04-21 18:58:00,
2013-04-21 15:03:00,46.4,11.5,30.56,NNW,338,8.0,13.0,24,0.00,,,0.00,meteohub,2013-04-21 19:03:00,
2013-04-21 15:08:00,46.9,12.0,30.56,NNW,328,9.0,13.0,24,0.00,,,0.00,meteohub,2013-04-21 19:08:00,
2013-04-21 15:13:00,46.9,12.0,30.56,West,279,7.0,15.0,24,0.00,,,0.00,meteohub,2013-04-21 19:13:00,
2013-04-21 15:18:00,45.9,9.1,30.56,North,-999,-999.0,15.0,22,0.00,,,0.00,meteohub,2013-04-21 19:18:00,
2013-04-21 15:23:00,46.4,9.7,30.56,North,-999,-999.0,15.0,22,0.00,,,0.00,meteohub,2013-04-21 19:23:00,
2013-04-21 15:28:00,45.9,9.1,30.56,North,3,8.0,8.0,22,0.00,,,0.00,meteohub,2013-04-21 19:28:00,
2013-04-21 15:33:00,45.1,6.4,30.56,NW,318,2.0,11.0,20,0.00,,,0.00,meteohub,2013-04-21 19:33:00,
2013-04-21 15:38:00,46.0,9.3,30.56,North,353,8.0,13.0,22,0.00,,,0.00,meteohub,2013-04-21 19:38:00,
2013-04-21 15:43:00,45.1,8.6,30.56,WNW,297,7.0,13.0,22,0.00,,,0.00,meteohub,2013-04-21 19:43:00,
2013-04-21 15:48:00,45.0,6.3,30.56,North,357,10.0,13.0,20,0.00,,,0.00,meteohub,2013-04-21 19:48:00,
2013-04-21 15:53:00,45.3,8.8,30.56,NW,318,9.0,13.0,22,0.00,,,0.00,meteohub,2013-04-21 19:53:00,
2013-04-21 15:58:00,46.0,9.3,30.56,WSW,242,6.0,11.0,22,0.00,,,0.00,meteohub,2013-04-21 19:58:00,
2013-04-21 16:03:00,46.0,9.3,30.56,WNW,285,6.0,11.0,22,0.00,,,0.00,meteohub,2013-04-21 20:03:00,
2013-04-21 16:08:00,46.0,9.3,30.56,WSW,258,5.0,11.0,22,0.00,,,0.00,meteohub,2013-04-21 20:08:00,
2013-04-21 16:13:00,46.0,9.3,30.56,NW,315,8.0,11.0,22,0.00,,,0.00,meteohub,2013-04-21 20:13:00,
2013-04-21 16:18:00,46.0,9.3,30.56,NW,320,5.0,11.0,22,0.00,,,0.00,meteohub,2013-04-21 20:18:00,
2013-04-21 16:23:00,45.9,9.1,30.56,North,-999,-999.0,10.0,22,0.00,,,0.00,meteohub,2013-04-21 20:23:00,
2013-04-21 16:28:00,45.9,9.1,30.56,SW,235,5.0,10.0,22,0.00,,,0.00,meteohub,2013-04-21 20:28:00,
2013-04-21 16:33:00,45.9,9.1,30.56,NW,311,12.0,13.0,22,0.00,,,0.00,meteohub,2013-04-21 20:33:00,
2013-04-21 16:38:00,45.5,8.8,30.56,NW,315,5.0,13.0,22,0.00,,,0.00,meteohub,2013-04-21 20:38:00,
2013-04-21 16:43:00,45.9,9.1,30.56,NW,313,8.0,13.0,22,0.00,,,0.00,meteohub,2013-04-21 20:43:00,
2013-04-21 16:48:00,45.9,9.1,30.56,WNW,298,6.0,12.0,22,0.00,,,0.00,meteohub,2013-04-21 20:48:00,
2013-04-21 16:53:00,45.5,8.8,30.56,NNE,13,6.0,11.0,22,0.00,,,0.00,meteohub,2013-04-21 20:53:00,
2013-04-21 16:58:00,45.7,9.0,30.56,North,-999,-999.0,11.0,22,0.00,,,0.00,meteohub,2013-04-21 20:58:00,
2013-04-21 17:03:00,45.5,8.8,30.56,NW,310,4.0,11.0,22,0.00,,,0.00,meteohub,2013-04-21 21:03:00,
2013-04-21 17:08:00,45.1,8.6,30.56,NW,313,6.0,11.0,22,0.00,,,0.00,meteohub,2013-04-21 21:08:00,
2013-04-21 17:13:00,45.3,8.8,30.56,NW,305,8.0,8.0,22,0.00,,,0.00,meteohub,2013-04-21 21:13:00,
2013-04-21 17:18:00,45.3,8.8,30.56,WNW,300,8.0,10.0,22,0.00,,,0.00,meteohub,2013-04-21 21:18:00,
2013-04-21 17:23:00,45.1,11.5,30.59,North,357,4.0,11.0,25,0.00,,,0.00,meteohub,2013-04-21 21:23:00,
2013-04-21 17:28:00,45.0,8.4,30.59,NE,40,11.0,11.0,22,0.00,,,0.00,meteohub,2013-04-21 21:28:00,
2013-04-21 17:33:00,45.0,8.4,30.59,NW,320,8.0,11.0,22,0.00,,,0.00,meteohub,2013-04-21 21:33:00,
2013-04-21 17:38:00,45.0,8.4,30.59,NNW,332,8.0,11.0,22,0.00,,,0.00,meteohub,2013-04-21 21:38:00,
2013-04-21 17:43:00,44.8,8.2,30.59,North,0,8.0,10.0,22,0.00,,,0.00,meteohub,2013-04-21 21:43:00,
2013-04-21 17:48:00,44.8,8.2,30.59,NW,318,8.0,10.0,22,0.00,,,0.00,meteohub,2013-04-21 21:48:00,
2013-04-21 17:53:00,44.8,8.2,30.59,NW,317,8.0,8.0,22,0.00,,,0.00,meteohub,2013-04-21 21:53:00,
2013-04-21 17:58:00,44.6,8.1,30.59,NNW,328,8.0,8.0,22,0.00,,,0.00,meteohub,2013-04-21 21:58:00,
2013-04-21 18:03:00,44.4,9.0,30.59,North,-999,-999.0,8.0,23,0.00,,,0.00,meteohub,2013-04-21 22:03:00,
2013-04-21 18:08:00,44.2,8.8,30.59,North,-999,-999.0,8.0,23,0.00,,,0.00,meteohub,2013-04-21 22:08:00,
2013-04-21 18:13:00,44.4,9.0,30.59,WNW,293,4.0,8.0,23,0.00,,,0.00,meteohub,2013-04-21 22:13:00,
2013-04-21 18:18:00,44.2,10.6,30.59,WNW,293,6.0,6.0,25,0.00,,,0.00,meteohub,2013-04-21 22:18:00,
2013-04-21 18:23:00,44.2,10.6,30.59,NNW,344,8.0,8.0,25,0.00,,,0.00,meteohub,2013-04-21 22:23:00,
2013-04-21 18:28:00,43.9,10.4,30.59,North,-999,-999.0,8.0,25,0.00,,,0.00,meteohub,2013-04-21 22:28:00,
2013-04-21 18:33:00,43.5,10.0,30.59,North,-999,-999.0,8.0,25,0.00,,,0.00,meteohub,2013-04-21 22:33:00,
2013-04-21 18:38:00,43.5,10.0,30.59,WNW,287,4.0,8.0,25,0.00,,,0.00,meteohub,2013-04-21 22:38:00,
2013-04-21 18:43:00,43.5,10.0,30.59,NW,312,10.0,10.0,25,0.00,,,0.00,meteohub,2013-04-21 22:43:00,
2013-04-21 18:48:00,43.3,8.1,30.59,North,357,6.0,10.0,23,0.00,,,0.00,meteohub,2013-04-21 22:48:00,
2013-04-21 18:54:00,43.2,7.9,30.59,WNW,290,6.0,10.0,23,0.00,,,0.00,meteohub,2013-04-21 22:54:00,
2013-04-21 18:59:00,43.2,7.9,30.59,North,-999,-999.0,8.0,23,0.00,,,0.00,meteohub,2013-04-21 22:59:00,
2013-04-21 19:04:00,43.0,7.7,30.59,North,-999,-999.0,8.0,23,0.00,,,0.00,meteohub,2013-04-21 23:04:00,
2013-04-21 19:08:00,42.4,10.0,30.62,North,-999,-999.0,-999.0,26,0.00,,,0.00,meteohub,2013-04-21 23:08:00,
2013-04-21 19:13:00,42.3,9.9,30.62,North,-999,-999.0,-999.0,26,0.00,,,0.00,meteohub,2013-04-21 23:13:00,
2013-04-21 19:19:00,42.1,9.7,30.62,North,-999,-999.0,-999.0,26,0.00,,,0.00,meteohub,2013-04-21 23:19:00,
2013-04-21 19:24:00,41.7,9.3,30.62,North,-999,-999.0,-999.0,26,0.00,,,0.00,meteohub,2013-04-21 23:24:00,
2013-04-21 19:29:00,41.4,9.0,30.62,North,-999,-999.0,-999.0,26,0.00,,,0.00,meteohub,2013-04-21 23:29:00,
2013-04-21 19:34:00,41.2,10.6,30.62,North,-999,-999.0,-999.0,28,0.00,,,0.00,meteohub,2013-04-21 23:34:00,
2013-04-21 19:39:00,41.0,10.4,30.62,North,-999,-999.0,-999.0,28,0.00,,,0.00,meteohub,2013-04-21 23:39:00,
2013-04-21 19:44:00,40.5,9.9,30.62,North,-999,-999.0,-999.0,28,0.00,,,0.00,meteohub,2013-04-21 23:44:00,
2013-04-21 19:49:00,40.3,10.6,30.62,North,-999,-999.0,-999.0,29,0.00,,,0.00,meteohub,2013-04-21 23:49:00,
2013-04-21 19:54:00,39.7,10.0,30.62,North,-999,-999.0,-999.0,29,0.00,,,0.00,meteohub,2013-04-21 23:54:00,
2013-04-21 19:59:00,39.4,9.7,30.62,North,-999,-999.0,-999.0,29,0.00,,,0.00,meteohub,2013-04-21 23:59:00,
2013-04-21 20:04:00,39.2,9.7,30.62,North,-999,-999.0,-999.0,29,0.00,,,0.00,meteohub,2013-04-22 00:04:00,
2013-04-21 20:09:00,38.8,10.0,30.65,North,-999,-999.0,-999.0,30,0.00,,,0.00,meteohub,2013-04-22 00:09:00,
2013-04-21 20:14:00,38.5,9.7,30.65,North,-999,-999.0,-999.0,30,0.00,,,0.00,meteohub,2013-04-22 00:14:00,
2013-04-21 20:19:00,38.1,9.5,30.65,North,-999,-999.0,-999.0,30,0.00,,,0.00,meteohub,2013-04-22 00:19:00,
2013-04-21 20:24:00,37.8,9.9,30.65,North,-999,-999.0,-999.0,31,0.00,,,0.00,meteohub,2013-04-22 00:24:00,
2013-04-21 20:29:00,37.4,9.5,30.65,North,-999,-999.0,-999.0,31,0.00,,,0.00,meteohub,2013-04-22 00:29:00,
2013-04-21 20:34:00,37.2,10.0,30.65,North,-999,-999.0,-999.0,32,0.00,,,0.00,meteohub,2013-04-22 00:34:00,
2013-04-21 20:39:00,36.9,9.7,30.65,North,-999,-999.0,-999.0,32,0.00,,,0.00,meteohub,2013-04-22 00:39:00,
2013-04-21 20:44:00,36.7,9.5,30.65,North,-999,-999.0,-999.0,32,0.00,,,0.00,meteohub,2013-04-22 00:44:00,
2013-04-21 20:49:00,36.3,9.3,30.65,North,-999,-999.0,-999.0,32,0.00,,,0.00,meteohub,2013-04-22 00:49:00,
2013-04-21 20:54:00,36.1,9.9,30.65,North,-999,-999.0,-999.0,33,0.00,,,0.00,meteohub,2013-04-22 00:54:00,
2013-04-21 20:59:00,36.0,9.7,30.65,North,-999,-999.0,-999.0,33,0.00,,,0.00,meteohub,2013-04-22 00:59:00,
2013-04-21 21:04:00,35.8,10.2,30.65,North,-999,-999.0,-999.0,34,0.00,,,0.00,meteohub,2013-04-22 01:04:00,
2013-04-21 21:09:00,35.4,9.9,30.65,North,-999,-999.0,-999.0,34,0.00,,,0.00,meteohub,2013-04-22 01:09:00,
2013-04-21 21:14:00,35.2,10.4,30.65,North,-999,-999.0,-999.0,35,0.00,,,0.00,meteohub,2013-04-22 01:14:00,
2013-04-21 21:19:00,34.9,10.0,30.65,North,-999,-999.0,-999.0,35,0.00,,,0.00,meteohub,2013-04-22 01:19:00,
2013-04-21 21:24:00,34.7,9.9,30.65,North,-999,-999.0,-999.0,35,0.00,,,0.00,meteohub,2013-04-22 01:24:00,
2013-04-21 21:29:00,34.3,9.5,30.65,North,-999,-999.0,-999.0,35,0.00,,,0.00,meteohub,2013-04-22 01:29:00,
2013-04-21 21:34:00,34.3,9.5,30.65,North,-999,-999.0,-999.0,35,0.00,,,0.00,meteohub,2013-04-22 01:34:00,
2013-04-21 21:39:00,34.0,9.9,30.68,North,-999,-999.0,-999.0,36,0.00,,,0.00,meteohub,2013-04-22 01:39:00,
2013-04-21 21:44:00,33.8,10.2,30.68,North,-999,-999.0,-999.0,37,0.00,,,0.00,meteohub,2013-04-22 01:44:00,
2013-04-21 21:49:00,33.6,10.0,30.68,North,-999,-999.0,-999.0,37,0.00,,,0.00,meteohub,2013-04-22 01:49:00,
2013-04-21 21:54:00,33.6,10.8,30.68,North,-999,-999.0,-999.0,38,0.00,,,0.00,meteohub,2013-04-22 01:54:00,
2013-04-21 21:59:00,33.4,10.0,30.68,North,-999,-999.0,-999.0,37,0.00,,,0.00,meteohub,2013-04-22 01:59:00,
2013-04-21 22:04:00,33.3,10.4,30.68,North,-999,-999.0,-999.0,38,0.00,,,0.00,meteohub,2013-04-22 02:04:00,
2013-04-21 22:09:00,33.3,10.4,30.68,North,-999,-999.0,-999.0,38,0.00,,,0.00,meteohub,2013-04-22 02:09:00,
2013-04-21 22:14:00,33.1,10.2,30.68,North,-999,-999.0,-999.0,38,0.00,,,0.00,meteohub,2013-04-22 02:14:00,
2013-04-21 22:19:00,32.7,10.4,30.68,North,-999,-999.0,-999.0,39,0.00,,,0.00,meteohub,2013-04-22 02:19:00,
2013-04-21 22:24:00,32.5,10.9,30.68,North,-999,-999.0,-999.0,40,0.00,,,0.00,meteohub,2013-04-22 02:24:00,
2013-04-21 22:29:00,32.5,10.9,30.68,North,-999,-999.0,-999.0,40,0.00,,,0.00,meteohub,2013-04-22 02:29:00,
2013-04-21 22:34:00,32.4,10.8,30.68,North,-999,-999.0,-999.0,40,0.00,,,0.00,meteohub,2013-04-22 02:34:00,
2013-04-21 22:39:00,32.2,10.6,30.68,North,-999,-999.0,-999.0,40,0.00,,,0.00,meteohub,2013-04-22 02:39:00,
2013-04-21 22:44:00,32.2,10.6,30.68,North,-999,-999.0,-999.0,40,0.00,,,0.00,meteohub,2013-04-22 02:44:00,
2013-04-21 22:49:00,32.0,10.9,30.68,North,-999,-999.0,-999.0,41,0.00,,,0.00,meteohub,2013-04-22 02:49:00,
2013-04-21 22:54:00,31.8,10.8,30.68,North,-999,-999.0,-999.0,41,0.00,,,0.00,meteohub,2013-04-22 02:54:00,
2013-04-21 22:59:00,31.8,10.8,30.68,North,-999,-999.0,-999.0,41,0.00,,,0.00,meteohub,2013-04-22 02:59:00,
2013-04-21 23:04:00,31.6,10.6,30.68,North,-999,-999.0,-999.0,41,0.00,,,0.00,meteohub,2013-04-22 03:04:00,
2013-04-21 23:09:00,31.3,10.2,30.68,North,-999,-999.0,-999.0,41,0.00,,,0.00,meteohub,2013-04-22 03:09:00,
2013-04-21 23:14:00,31.1,10.2,30.68,North,-999,-999.0,-999.0,41,0.00,,,0.00,meteohub,2013-04-22 03:14:00,
2013-04-21 23:19:00,31.1,10.2,30.68,North,-999,-999.0,-999.0,41,0.00,,,0.00,meteohub,2013-04-22 03:19:00,
2013-04-21 23:24:00,31.1,10.2,30.68,North,-999,-999.0,-999.0,41,0.00,,,0.00,meteohub,2013-04-22 03:24:00,
2013-04-21 23:29:00,30.9,10.0,30.68,North,-999,-999.0,-999.0,41,0.00,,,0.00,meteohub,2013-04-22 03:29:00,
2013-04-21 23:34:00,30.7,10.4,30.68,North,-999,-999.0,-999.0,42,0.00,,,0.00,meteohub,2013-04-22 03:34:00,
2013-04-21 23:39:00,30.7,10.4,30.68,North,-999,-999.0,-999.0,42,0.00,,,0.00,meteohub,2013-04-22 03:39:00,
2013-04-21 23:44:00,30.6,10.2,30.68,North,-999,-999.0,-999.0,42,0.00,,,0.00,meteohub,2013-04-22 03:44:00,
2013-04-21 23:49:00,30.6,10.2,30.68,North,-999,-999.0,-999.0,42,0.00,,,0.00,meteohub,2013-04-22 03:49:00,
2013-04-21 23:54:00,30.4,10.0,30.71,North,-999,-999.0,-999.0,42,0.00,,,0.00,meteohub,2013-04-22 03:54:00,
2013-04-21 23:59:00,30.4,10.0,30.71,North,-999,-999.0,-999.0,42,0.00,,,0.00,meteohub,2013-04-22 03:59:00,